DW6282 Weather Reports


Display with metric or nautical units.
time (UTC)temp
F
wind
direction
speed
MPH
gust
MPH
rain 1hr
in
rain 24hr
in
rain mn
in
humidity
%
barometer
mb
20260508000012 77 29 3.0 7.0 0.00 0.00 0.00 81 1011.5
20260507234512 78 92 0.0 7.0 0.00 0.00 0.00 80 1011.2
20260507233023 78 37 0.0 6.0 0.00 0.00 0.00 81 1011.4
20260507231509 78 32 1.0 8.0 0.00 0.00 0.00 82 1011.5
20260507230009 78 105 1.0 4.0 0.00 0.00 0.00 81 1011.5
20260507224509 78 85 3.0 12.0 0.00 0.00 0.00 81 1011.6
20260507223007 79 18 4.0 8.0 0.00 0.00 0.00 79 1011.4
20260507221507 79 32 0.0 5.0 0.00 0.00 0.00 81 1011.4
20260507220006 79 115 0.0 3.0 0.00 0.00 0.00 78 1011.6
20260507214506 80 30 2.0 6.0 0.00 0.00 0.00 79 1011.4
20260507213010 78 20 1.0 9.0 0.00 0.00 0.00 81 1011.6
20260507211503 78 51 3.0 12.0 0.00 0.00 0.00 80 1011.8
20260507210004 79 358 6.0 8.0 0.00 0.00 0.00 79 1011.9
20260507204600 78 19 3.0 8.0 0.00 0.00 0.00 81 1012.1
20260507203058 77 23 3.0 9.0 0.00 0.00 0.00 82 1012.3
20260507201555 76 20 4.0 10.0 0.00 0.00 0.00 84 1012.4
20260507200054 75 340 4.0 12.0 0.00 0.00 0.00 83 1012.7
20260507194617 74 353 6.0 9.0 0.00 0.00 0.00 84 1012.7
20260507193051 73 34 3.0 7.0 0.00 0.00 0.00 82 1013.0
20260507191551 73 40 3.0 9.0 0.00 0.00 0.00 83 1013.2
20260507190054 72 19 6.0 12.0 0.00 0.00 0.00 83 1013.3
20260507184551 71 359 5.0 10.0 0.00 0.00 0.00 83 1013.3
20260507183050 71 333 5.0 10.0 0.00 0.00 0.00 82 1013.4
20260507181555 71 25 5.0 11.0 0.00 0.00 0.00 83 1013.6
20260507180048 70 14 4.0 11.0 0.00 0.00 0.00 84 1013.7
20260507174556 69 3 8.0 12.0 0.00 0.00 0.00 85 1013.8
20260507173116 68 345 5.0 10.0 0.00 0.00 0.00 85 1014.0
20260507171549 67 9 6.0 10.0 0.00 0.00 0.00 87 1014.1
20260507170055 67 20 4.0 9.0 0.00 0.00 0.00 87 1014.1
20260507164553 67 15 5.0 9.0 0.00 0.00 0.00 87 1014.0
20260507163047 66 11 8.0 13.0 0.00 0.00 0.00 88 1014.2
20260507161559 66 13 6.0 13.0 0.00 0.00 0.00 87 1014.1
20260507160042 66 16 8.0 13.0 0.00 0.00 0.00 88 1014.0
20260507154543 66 7 7.0 15.0 0.00 0.00 0.00 88 1014.0
20260507153042 66 18 7.0 10.0 0.00 0.00 0.00 88 1014.1
20260507151539 66 18 6.0 12.0 0.00 0.00 0.00 88 1014.1
20260507150038 65 26 8.0 14.0 0.00 0.00 0.00 89 1014.0
20260507144539 66 15 8.0 13.0 0.00 0.00 0.00 89 1013.9
20260507143039 66 34 7.0 12.0 0.00 0.00 0.00 89 1013.5
20260507141541 65 9 7.0 12.0 0.00 0.00 0.00 89 1013.6
20260507140037 65 23 9.0 17.0 0.00 0.00 0.00 89 1013.6
20260507134533 66 31 9.0 14.0 0.00 0.00 0.00 89 1013.8
20260507133030 66 11 9.0 12.0 0.00 0.00 0.00 90 1013.9
20260507131531 66 353 8.0 15.0 0.00 0.00 0.00 88 1013.9
20260507130025 67 15 7.0 11.0 0.00 0.00 0.00 89 1013.5
20260507124520 67 9 7.0 11.0 0.00 0.00 0.00 89 1013.2
20260507123016 68 1 6.0 9.0 0.00 0.00 0.00 89 1012.8
20260507121513 68 14 6.0 10.0 0.00 0.00 0.00 89 1012.5
20260507120026 68 29 5.0 8.0 0.00 0.00 0.00 89 1012.3
20260507114509 68 11 2.0 7.0 0.00 0.00 0.00 90 1012.2
20260507113029 68 16 4.0 8.0 0.00 0.00 0.00 89 1011.9
20260507111507 69 9 7.0 11.0 0.00 0.00 0.00 89 1011.8
20260507110009 69 16 6.0 12.0 0.00 0.00 0.00 90 1011.7
20260507104502 69 14 6.0 11.0 0.00 0.00 0.00 89 1011.6
20260507103100 69 2 8.0 12.0 0.00 0.00 0.00 90 1011.5
20260507101602 69 8 6.0 11.0 0.00 0.00 0.00 89 1011.3
20260507100055 70 53 4.0 13.0 0.00 0.00 0.00 90 1011.1
20260507094558 70 18 7.0 11.0 0.00 0.00 0.00 89 1011.0
20260507093053 70 34 5.0 12.0 0.00 0.00 0.00 89 1011.0
20260507091551 70 15 10.0 16.0 0.00 0.00 0.00 89 1011.0
20260507090054 70 334 8.0 13.0 0.00 0.00 0.00 89 1010.8
20260507084549 71 22 7.0 14.0 0.00 0.00 0.00 89 1010.5
20260507083045 71 3 7.0 13.0 0.00 0.00 0.00 89 1010.4
20260507081547 71 6 10.0 14.0 0.00 0.00 0.00 90 1010.5
20260507080043 72 15 9.0 15.0 0.00 0.00 0.00 89 1010.4
20260507074540 72 2 7.0 11.0 0.00 0.00 0.00 89 1010.6
20260507073037 72 329 5.0 12.0 0.00 0.00 0.00 88 1010.8
20260507071537 73 8 7.0 14.0 0.00 0.00 0.00 88 1010.8
20260507070040 73 3 9.0 16.0 0.00 0.00 0.00 88 1010.8
20260507064541 73 25 9.0 14.0 0.00 0.00 0.00 88 1010.7
20260507063035 73 4 7.0 12.0 0.00 0.00 0.00 88 1010.7
20260507061533 74 1 9.0 12.0 0.00 0.00 0.00 89 1010.6
20260507060031 74 15 9.0 13.0 0.00 0.00 0.00 89 1010.3
20260507054522 74 19 3.0 7.0 0.00 0.00 0.00 90 1010.4
20260507053023 74 15 7.0 11.0 0.00 0.00 0.00 90 1010.5
20260507051518 74 326 5.0 10.0 0.00 0.00 0.00 90 1010.4
20260507050017 75 355 4.0 9.0 0.00 0.00 0.00 90 1010.5
20260507044514 75 319 5.0 11.0 0.00 0.00 0.00 89 1010.5
20260507043011 76 351 7.0 14.0 0.00 0.00 0.00 89 1010.6
20260507041509 77 196 0.0 0.0 0.00 0.00 0.00 95 1010.2
20260507040008 77 196 0.0 0.0 0.00 0.00 0.00 95 1010.0
20260507034506 77 196 0.0 0.0 0.00 0.00 0.00 95 1010.0
20260507033004 77 196 0.0 0.0 0.00 0.00 0.00 95 1009.6
20260507031502 77 196 0.0 0.0 0.00 0.00 0.00 94 1009.3
20260507030002 77 196 0.0 0.0 0.00 0.00 0.00 94 1009.1
20260507024502 77 196 0.0 0.0 0.00 0.00 0.00 94 1009.0
20260507023001 78 196 0.0 2.0 0.00 0.00 0.00 93 1008.7
20260507021608 78 196 0.0 2.0 0.00 0.00 0.00 93 1008.6
20260507020100 78 191 0.0 1.0 0.00 0.00 0.00 92 1008.4
20260507014600 78 191 0.0 3.0 0.00 0.00 0.00 92 1008.3
20260507013116 79 198 0.0 2.0 0.00 0.00 0.00 91 1007.9
20260507011559 79 196 0.0 3.0 0.00 0.00 0.00 91 1007.8
20260507010059 79 165 0.0 1.0 0.00 0.00 0.00 90 1007.8
20260507004558 80 208 0.0 2.0 0.00 0.00 0.00 90 1007.6
20260507003059 80 200 0.0 2.0 0.00 0.00 0.00 89 1007.4
20260507001611 80 190 0.0 4.0 0.00 0.00 0.00 89 1007.2